sat.trackr.live / text

‹ back to catalog

STARLINK-32651

NORAD 62314 · 2024-239P

PAYLOAD ACTIVE UNKNOWN

§ Identity

Operator
Country
US
Launch date
2024-12-13
Launch site
AFWTR
Launch vehicle
Mass (kg)
RCS (m²)

Purposes: comms

External: N2YO · Heavens-Above · Gunter

§ Orbital elements

Epoch: 2026-05-25T03:56:25.024128Z

Period
94.10 min
Inclination
53.1579°
Eccentricity
0.0000843
Mean motion
15.30208669 rev/d
Perigee alt
474.6 km
Apogee alt
475.8 km
Semi-major
6,853.3 km
B*
4.7468e-4
RAAN
198.6201°
Arg perigee
78.0231°
Mean anomaly
282.0864°
Rev number
8,109

§ Raw data

STARLINK-326511 62314U 24239P   26145.16417852  .00013729  00000+0  47468-3 0  99912 62314  53.1579 198.6201 0000843  78.0231 282.0864 15.30208669 81099

JSON: /api/v1/satellites/62314 · /tle

For live sub-satellite position, see the globe view (requires WebGL).

§ Visibility from observer

Set your observer location to see the next 7 days of passes ≥ 10°. The values pass through the URL so the page stays shareable.

No JS? Fill the form by hand. The geolocation button needs JavaScript.